User: anonymous   Login
Location: Unspecified
(0.0000°N, 0.0000°E)
Time: 14:28:17
(UTC+00:00)
Language:

SIRIUS FM-5 - Orbit

View from above orbital plane
View from above orbital plane
View from above satellite
View from above satellite

Ground track
Ground track

The orbit data is extracted from the following two-line orbital elements,

1 35493U 09034A   21215.06601177 -.00000197  00000-0  00000+0 0  9996
2 35493   0.0232 330.1511 0000478  32.7694 246.5527  1.00271396 44139
Epoch (UTC): 03 August 2021 01:35:03
Eccentricity: 0.0000478
inclination: 0.0232°
perigee height: 35784 km
apogee height: 35788 km
right ascension of ascending node: 330.1511°
argument of perigee: 32.7694°
revolutions per day: 1.00271396
mean anomaly at epoch: 246.5527°
orbit number at epoch: 4413

The dashed part of the orbit path shows where the satellite is in the earth's shadow,  

DLR